EST,Max TemperatureF,Mean TemperatureF,Min TemperatureF,Max Dew PointF,MeanDew PointF,Min DewpointF,Max Humidity, Mean Humidity, Min Humidity, Max Sea Level PressureIn, Mean Sea Level PressureIn, Min Sea Level PressureIn, Max VisibilityMiles, Mean VisibilityMiles, Min VisibilityMiles, Max Wind SpeedMPH, Mean Wind SpeedMPH, Max Gust SpeedMPH,PrecipitationIn, CloudCover, Events, WindDirDegrees
2014-1-1,82,78,73,72,70,66,93,81,69,30.19,30.13,30.06,10,10,7,18,10,26,0.08,6,Rain,106
2014-1-2,84,78,71,70,68,66,93,76,58,30.05,29.98,29.91,10,10,10,18,7,26,0.00,2,,185
2014-1-3,73,67,61,70,56,37,93,65,37,30.18,30.05,29.92,10,10,6,17,8,26,0.00,6,,335
2014-1-4,76,69,61,68,63,54,84,76,68,30.18,30.12,30.08,10,10,10,14,8,24,0.02,7,Rain,76
2014-1-5,82,76,70,71,68,65,90,79,67,30.06,30.02,29.97,10,10,10,22,8,28,0.01,6,,155
2014-1-6,85,72,58,71,65,40,100,73,46,30.18,30.05,29.98,10,10,10,21,7,30,0.05,5,Rain,259
2014-1-7,58,54,49,49,41,28,77,58,38,30.30,30.26,30.20,10,10,8,20,10,35,0.05,8,Rain,344
2014-1-8,72,61,50,68,61,48,100,92,84,30.30,30.23,30.20,10,8,4,18,10,25,0.08,8,Rain,34
2014-1-9,79,75,71,73,71,68,93,86,79,30.23,30.18,30.13,10,8,4,17,9,22,0.25,8,Rain,85
2014-1-10,81,77,72,73,70,67,87,78,69,30.17,30.12,30.07,10,10,10,21,10,28,0.00,6,,113
2014-1-11,83,78,72,72,71,69,94,80,65,30.13,30.07,30.00,10,10,10,18,9,29,0.00,2,,163
2014-1-12,81,74,66,70,65,58,93,69,45,30.17,30.11,30.05,10,10,7,15,5,22,0.00,5,,271
2014-1-13,81,73,65,70,67,61,90,79,67,30.16,30.10,30.05,10,10,10,16,6,21,0.00,4,,124
2014-1-14,84,77,70,72,67,63,93,72,51,30.06,30.00,29.96,10,10,10,17,6,23,0.00,4,,210
2014-1-15,72,66,60,68,60,48,93,74,55,30.04,30.00,29.95,10,10,3,15,6,20,0.30,7,Rain,304
2014-1-16,61,56,50,54,41,28,80,55,29,30.17,30.09,29.99,10,10,10,20,8,29,0.00,4,,316
2014-1-17,66,56,46,39,36,32,71,53,34,30.23,30.16,30.11,10,10,10,8,5,21,0.00,5,,324
2014-1-18,69,61,52,50,41,33,77,57,36,30.24,30.19,30.16,10,10,10,14,4,21,0.00,3,,330
2014-1-19,69,58,46,50,39,29,72,51,29,30.30,30.22,30.17,10,10,10,12,4,18,0.00,2,,292
2014-1-20,76,65,54,56,53,50,86,68,49,30.21,30.14,30.07,10,10,10,10,3,18,0.00,5,,236
2014-1-21,73,67,61,63,59,55,97,79,61,30.08,29.99,29.93,10,9,2,15,7,22,0.18,6,Rain,225
2014-1-22,66,59,52,61,43,35,93,64,34,30.19,30.07,29.92,10,10,7,17,8,30,0.00,2,,313
2014-1-23,72,60,47,53,43,31,72,51,30,30.29,30.24,30.18,10,10,10,15,6,18,0.00,2,,3
2014-1-24,73,66,58,53,52,50,80,65,49,30.36,30.28,30.23,10,10,10,15,8,24,0.00,4,,1
2014-1-25,76,65,53,60,56,50,89,73,57,30.22,30.14,30.07,10,10,10,13,4,20,0.00,3,,173
2014-1-26,78,67,56,61,59,55,97,73,48,30.10,30.05,30.00,10,10,9,13,4,22,0.00,5,,174
2014-1-27,82,72,62,66,63,61,93,76,58,30.05,30.01,29.96,10,10,10,12,3,17,0.00,2,,183
2014-1-28,81,72,63,69,66,63,100,81,62,30.10,30.04,29.99,10,10,7,15,4,22,0.00,1,,159
2014-1-29,79,72,65,72,68,63,100,88,76,30.08,30.03,29.99,10,9,3,14,5,23,0.56,8,Rain,70
2014-1-30,70,66,61,69,64,59,100,94,87,30.12,30.07,30.04,10,7,0,10,6,23,0.25,8,Rain,343
2014-1-31,82,75,68,73,70,66,100,85,69,30.10,30.05,30.00,10,8,0,16,6,24,0.08,7,Rain,110